Tauranga (NZTG)

Aerodrome — Elev 13
New Zealand
S037.40.18.998 E176.11.46.000
Loading chart...

Current Weather

NZTG 250330Z 04004KT 010V070 48KM BKN070 16/12 Q1023 RMK AUTO VATSIM USE ONLY

Published 26 minutes ago

Airport Activity

Loading chart...
Loading chart...

Standard ATC Positions

CallsignRadio Name / Freq / Voice Room / TypeFrequencyVoice RoomType
NZCH-B_CTR Bay Approach
119.500
nzch-b_ctr
119.500nzch-b_ctr
NZTG_TWR Tauranga Tower
118.300
nztg_twr
118.300nztg_twr
NZTG_ATIS Tauranga ATIS
126.600
nztg_atis
126.600nztg_atis

Charts